Location: Roy
(47.3334°N, 108.9587°W)
Time: 07:27:42
(UTC+00:00)

N. Korean satellite - Pass Details

Date: 26 January 2022
Orbit: 438 x 478 km, 97.3° (Epoch: 21 May)

Event Time Altitude Azimuth Distance (km) Brightness Sun altitude
Rises 11:58:35 0° 21° (NNE) 2,636 10.6 -28.7°
Reaches altitude 10° 12:00:51 10° 32° (NNE) 1,747 9.7 -28.3°
Maximum altitude 12:04:15 32° 96° (E) 909 8.4 -27.7°
Drops below altitude 10° 12:07:37 10° 161° (SSE) 1,727 9.5 -27.2°
Sets 12:09:51 0° 171° (S) 2,601 10.4 -26.8°
